TimeCST,TemperatureF,Dew PointF,Humidity,Sea Level PressureIn,VisibilityMPH,Wind Direction,Wind SpeedMPH,Gust SpeedMPH,PrecipitationIn,Events,Conditions,WindDirDegrees,DateUTC
12:53 AM,27.0,19.9,75,30.14,9.0,SE,5.8,-,N/A,,Clear,140,2013-03-09 06:53:00
1:53 AM,28.0,21.0,75,30.12,9.0,SSE,3.5,-,N/A,,Mostly Cloudy,150,2013-03-09 07:53:00
2:53 AM,27.0,21.0,78,30.09,8.0,Calm,Calm,-,N/A,,Overcast,0,2013-03-09 08:53:00
3:53 AM,28.9,23.0,78,30.06,9.0,ESE,5.8,-,N/A,,Overcast,120,2013-03-09 09:53:00
4:53 AM,30.0,23.0,75,30.02,10.0,ESE,8.1,-,N/A,,Overcast,110,2013-03-09 10:53:00
5:53 AM,30.9,23.0,72,30.01,10.0,SE,10.4,-,N/A,,Overcast,130,2013-03-09 11:53:00
6:00 AM,30.2,23.0,75,29.95,10.0,SE,10.4,-,N/A,,Overcast,130,2013-03-09 12:00:00
6:26 AM,30.2,24.8,80,29.94,1.8,ESE,9.2,-,0.00,Snow,Light Snow,120,2013-03-09 12:26:00
6:53 AM,30.0,25.0,82,29.99,1.2,ESE,6.9,-,0.02,Snow,Light Snow,110,2013-03-09 12:53:00
7:16 AM,30.2,26.6,86,29.92,2.0,ESE,5.8,-,0.01,Snow,Light Snow,110,2013-03-09 13:16:00
7:29 AM,30.2,26.6,86,29.92,1.0,East,5.8,-,0.02,Snow,Light Snow,100,2013-03-09 13:29:00
7:37 AM,30.2,26.6,86,29.92,0.8,ESE,6.9,-,0.02,Snow,Light Snow,110,2013-03-09 13:37:00
7:53 AM,30.0,26.1,85,29.98,0.8,ESE,5.8,-,0.04,Snow,Light Snow,110,2013-03-09 13:53:00
8:33 AM,30.2,26.6,86,29.89,1.2,East,4.6,-,0.02,Snow,Light Snow,90,2013-03-09 14:33:00
8:51 AM,30.2,26.6,86,29.89,2.5,ESE,4.6,-,0.02,Snow,Light Snow,110,2013-03-09 14:51:00
8:53 AM,30.0,26.1,85,29.95,2.5,ESE,4.6,-,0.02,Snow,Light Snow,120,2013-03-09 14:53:00
9:00 AM,30.2,26.6,86,29.89,3.0,Calm,Calm,-,0.00,Snow,Light Snow,0,2013-03-09 15:00:00
9:27 AM,30.2,26.6,86,29.87,2.0,East,3.5,-,0.01,Snow,Light Snow,90,2013-03-09 15:27:00
9:36 AM,30.2,26.6,86,29.86,1.5,East,3.5,-,0.01,Snow,Light Snow,90,2013-03-09 15:36:00
9:51 AM,30.2,26.6,86,29.86,3.0,East,4.6,-,0.01,Snow,Light Snow,100,2013-03-09 15:51:00
9:52 AM,30.9,27.0,85,29.92,3.0,East,4.6,-,0.01,Snow,Light Snow,100,2013-03-09 15:52:00
10:53 AM,32.0,28.0,85,29.88,4.0,ESE,6.9,-,0.00,,Overcast,120,2013-03-09 16:53:00
11:29 AM,33.8,28.4,81,29.82,2.5,SE,6.9,-,N/A,,Overcast,140,2013-03-09 17:29:00
11:53 AM,33.1,28.9,85,29.88,2.0,SSE,5.8,-,N/A,,Overcast,150,2013-03-09 17:53:00
12:13 PM,33.8,30.2,87,29.82,1.8,SSE,6.9,-,N/A,,Overcast,160,2013-03-09 18:13:00
12:30 PM,33.8,30.2,87,29.81,2.0,SE,5.8,-,N/A,,Overcast,140,2013-03-09 18:30:00
12:53 PM,33.1,30.0,89,29.85,2.5,SE,5.8,-,N/A,,Overcast,140,2013-03-09 18:53:00
1:53 PM,33.1,30.0,89,29.83,2.5,SE,6.9,-,N/A,,Overcast,140,2013-03-09 19:53:00
2:30 PM,33.8,30.2,87,29.76,2.0,SSE,6.9,-,0.00,,Overcast,150,2013-03-09 20:30:00
2:51 PM,33.8,30.2,87,29.76,2.0,SSE,3.5,-,0.01,Snow,Light Snow,160,2013-03-09 20:51:00
2:53 PM,33.1,30.9,92,29.82,2.0,SSE,4.6,-,0.01,Snow,Light Snow,150,2013-03-09 20:53:00
3:05 PM,33.8,30.2,87,29.75,1.2,SSE,4.6,-,0.01,Snow,Light Snow,150,2013-03-09 21:05:00
3:17 PM,33.8,30.2,87,29.75,0.8,SSE,4.6,-,0.01,Snow,Light Snow,150,2013-03-09 21:17:00
3:38 PM,33.8,30.2,87,29.74,0.8,ESE,3.5,-,0.03,Snow,Light Snow,120,2013-03-09 21:38:00
3:45 PM,33.8,30.2,87,29.74,1.2,SE,3.5,-,0.03,Snow,Light Snow,130,2013-03-09 21:45:00
3:53 PM,33.1,30.9,92,29.80,1.8,ESE,3.5,-,0.04,Snow,Light Snow,110,2013-03-09 21:53:00
4:00 PM,33.8,30.2,87,29.73,2.0,ESE,3.5,-,0.00,Snow,Light Snow,110,2013-03-09 22:00:00
4:09 PM,33.8,30.2,87,29.73,1.5,East,3.5,-,0.00,Snow,Light Snow,90,2013-03-09 22:09:00
4:24 PM,33.8,30.2,87,29.72,0.8,Calm,Calm,-,0.01,Snow,Light Snow,0,2013-03-09 22:24:00
4:53 PM,33.1,30.0,89,29.77,0.8,ESE,3.5,-,0.04,Snow,Light Snow,120,2013-03-09 22:53:00
5:24 PM,33.8,30.2,87,29.73,0.2,Calm,Calm,-,0.03,Fog-Snow,Snow,0,2013-03-09 23:24:00
5:53 PM,33.1,30.9,92,29.80,0.2,Calm,Calm,-,0.07,Fog-Snow,Snow,0,2013-03-09 23:53:00
6:20 PM,33.8,30.2,87,29.74,0.5,Calm,Calm,-,0.05,Fog-Snow,Snow,0,2013-03-10 00:20:00
6:40 PM,33.8,30.2,87,29.74,1.0,Calm,Calm,-,0.07,Snow,Light Snow,0,2013-03-10 00:40:00
6:49 PM,33.8,30.2,87,29.75,0.8,Calm,Calm,-,0.08,Snow,Light Snow,0,2013-03-10 00:49:00
6:53 PM,33.1,30.0,89,29.80,0.8,Calm,Calm,-,0.08,Snow,Light Snow,0,2013-03-10 00:53:00
7:03 PM,33.8,30.2,87,29.75,1.0,Calm,Calm,-,0.01,Snow,Light Snow,0,2013-03-10 01:03:00
7:36 PM,33.8,30.2,87,29.75,1.2,Calm,Calm,-,0.03,Snow,Light Snow,0,2013-03-10 01:36:00
7:53 PM,33.1,30.0,89,29.81,1.2,NW,3.5,-,0.04,Snow,Light Snow,310,2013-03-10 01:53:00
8:48 PM,32.0,28.4,87,29.75,2.0,NW,3.5,-,0.01,Snow,Light Snow,310,2013-03-10 02:48:00
8:53 PM,32.0,28.9,88,29.81,2.0,NW,3.5,-,0.01,Snow,Light Snow,310,2013-03-10 02:53:00
9:06 PM,32.0,28.4,87,29.75,3.0,NW,4.6,-,0.00,Snow,Light Snow,310,2013-03-10 03:06:00
9:32 PM,32.0,28.4,87,29.76,4.0,WNW,4.6,-,0.00,Snow,Light Snow,300,2013-03-10 03:32:00
9:39 PM,32.0,28.4,87,29.76,4.0,WNW,3.5,-,0.00,Snow,Light Snow,300,2013-03-10 03:39:00
9:53 PM,33.1,28.9,85,29.81,4.0,NW,6.9,-,0.00,Snow,Light Snow,320,2013-03-10 03:53:00
10:26 PM,33.8,28.4,81,29.77,7.0,NW,8.1,-,0.00,Snow,Light Snow,320,2013-03-10 04:26:00
10:48 PM,33.8,28.4,81,29.76,7.0,NNW,12.7,-,0.00,Snow,Light Snow,330,2013-03-10 04:48:00
10:53 PM,33.1,28.9,85,29.81,6.0,NNW,11.5,-,0.00,Snow,Light Snow,340,2013-03-10 04:53:00
11:07 PM,33.8,28.4,81,29.77,7.0,NNW,6.9,-,0.00,Snow,Light Snow,330,2013-03-10 05:07:00
11:53 PM,32.0,27.0,82,29.83,10.0,NNW,12.7,-,0.00,,Overcast,330,2013-03-10 05:53:00
11:56 PM,32.0,26.6,80,29.78,10.0,NNW,13.8,-,N/A,,Overcast,330,2013-03-10 05:56:00